This demonstration page uses our WeatherBlox Daily Observations layout. Learn more.

Left ArrowRight Arrow

53.62937, 11.41316

Hourly Observations for August 19, 2021

Temp ( °F °C ) Dew Point ( °F °C ) Humidity (%) Winds ( mph kmh ) Pressure ( in mb ) Visibility ( mi km ) Precip ( " mm )
6:20 am 06:20 Mostly Cloudy with Showers Nearby 57 14 57 14 100 100 SW 8 13 29.77 1008 30 48 N/A
6:50 am 06:50 Mostly Sunny 57 14 57 14 100 100 SW 7 11 29.77 1008 30 48 N/A
7:20 am 07:20 Partly Cloudy with Light Showers 57 14 57 14 100 100 SSW 9 15 29.77 1008 6 9 N/A
7:50 am 07:50 Partly Cloudy with Showers Nearby 57 14 57 14 100 100 SSW 13 20 29.77 1008 30 48 N/A
8:20 am 08:20 Partly Cloudy 59 15 57 14 94 94 SW 12 19 29.80 1009 30 48 N/A
8:50 am 08:50 Partly Cloudy 59 15 55 13 88 88 SW 12 19 29.80 1009 30 48 N/A
9:20 am 09:20 Partly Cloudy 61 16 57 14 88 88 SW 10 17 29.80 1009 30 48 N/A
9:50 am 09:50 Mostly Cloudy 61 16 57 14 88 88 SW 9 15 29.80 1009 30 48 N/A
10:20 am 10:20 Partly Cloudy with Showers Nearby 61 16 57 14 88 88 WSW 6 9 29.80 1009 30 48 N/A
10:50 am 10:50 Partly Cloudy 63 17 55 13 77 77 SW 10 17 29.80 1009 30 48 N/A
11:20 am 11:20 Partly Cloudy 64 18 57 14 78 78 SW 14 22 29.82 1010 30 48 N/A
11:50 am 11:50 Partly Cloudy 66 19 55 13 68 68 VRB 9 15 29.82 1010 30 48 N/A
12:20 pm 12:20 Partly Cloudy 64 18 54 12 68 68 SW 14 22 29.82 1010 30 48 N/A
12:50 pm 12:50 Partly Cloudy 66 19 54 12 64 64 SW 8 13 29.82 1010 30 48 N/A
1:20 pm 13:20 Partly Cloudy 64 18 54 12 68 68 SW 14 22 29.82 1010 30 48 N/A
1:50 pm 13:50 Partly Cloudy 66 19 55 13 68 68 SW 14 22 29.82 1010 30 48 N/A
2:20 pm 14:20 Partly Cloudy 66 19 55 13 68 68 SW 12 19 29.82 1010 30 48 N/A
2:50 pm 14:50 Mostly Sunny 66 19 57 14 73 73 SSW 13 20 29.82 1010 30 48 N/A
3:20 pm 15:20 Partly Cloudy 68 20 57 14 69 69 SSW 14 22 29.82 1010 30 48 N/A
3:50 pm 15:50 Partly Cloudy 68 20 55 13 64 64 SW 15 24 29.82 1010 30 48 N/A
4:20 pm 16:20 Partly Cloudy 68 20 57 14 69 69 SW 9 15 29.82 1010 30 48 N/A
4:50 pm 16:50 Mostly Sunny 66 19 55 13 68 68 SSW 14 22 29.82 1010 30 48 N/A
5:20 pm 17:20 Partly Cloudy 66 19 57 14 73 73 SSW 13 20 29.82 1010 30 48 N/A
5:50 pm 17:50 Partly Cloudy 66 19 57 14 73 73 SSW 10 17 29.82 1010 30 48 N/A
6:20 pm 18:20 Mostly Sunny 66 19 59 15 78 78 SSW 10 17 29.82 1010 30 48 N/A
6:50 pm 18:50 Partly Cloudy 66 19 55 13 68 68 SW 8 13 29.85 1011 30 48 N/A
7:20 pm 19:20 Partly Cloudy 64 18 52 11 64 64 SW 6 9 29.85 1011 30 48 N/A
7:50 pm 19:50 Partly Cloudy 64 18 52 11 64 64 SW 8 13 29.85 1011 30 48 N/A
8:20 pm 20:20 Mostly Sunny 63 17 52 11 68 68 SW 10 17 29.85 1011 30 48 N/A
8:50 pm 20:50 Mostly Clear 63 17 54 12 73 73 SW 7 11 29.85 1011 30 48 N/A
9:20 pm 21:20 Mostly Clear 63 17 54 12 73 73 SW 7 11 29.88 1012 30 48 N/A
9:50 pm 21:50 Mostly Cloudy 63 17 54 12 73 73 SW 6 9 29.88 1012 30 48 N/A

Powered by AerisWeather